[[{"header":{"parameterUnit":"m.s-1","parameterCategory":1,"la1":30.2991,"la2":30.254,"lo1":-89.0895,"lo2":-89.0444,"dy":0.0017,"dx":0.0017,"nx":28,"ny":28,"refTime":"2025-01-06T03:00:00:Z","depth":0,"parameterNumber":2,"parameterNumberName":"U-component_of_WINDS"},"data":[0,0,0,0,0,0,0,0,0,0,0,0,0,0,0,0,0,0,0,0,0,0,0,0,0,0,0,0,0,0,0,0,0,0,0,0,0,0,0,0,0,0,0,0,0,0,0,0,0,0,0,0,0,0,0,0,0,0,6.6729,6.673,0,6.6842,6.6843,6.6845,6.6767,6.6764,6.676,6.6757,6.6871,6.6877,6.6884,0,0,0,0,0,0,0,0,0,0,0,0,0,6.6446,6.6452,6.6729,6.673,6.6732,6.6842,6.6843,6.6845,6.6768,6.6764,6.6759,6.6755,6.6869,6.6877,6.6884,0,0,0,0,0,0,0,0,0,0,0,0,0,6.6565,6.6454,6.6728,6.6706,6.6706,6.6842,6.6843,6.6845,6.6769,6.6763,6.6758,6.6753,6.6867,6.6876,6.6885,6.7049,0,0,6.6914,6.6918,0,0,0,0,0,0,0,0,6.6558,6.6576,6.6708,6.6708,6.6707,6.6785,6.6786,6.6914,6.677,6.6745,6.6757,6.6751,6.6847,6.6858,6.689,6.7054,6.7059,6.6915,6.6921,6.6925,6.6928,0,0,0,0,0,0,0,6.655,6.657,6.6773,6.671,6.671,6.6691,6.6702,6.681,6.6824,6.6746,6.6741,6.6756,6.6846,6.6881,6.6892,6.7061,6.6915,6.6923,6.6929,6.6933,6.7367,6.7373,0,0,0,0,0,0,6.6544,6.6564,6.677,6.6777,6.6619,6.67,6.6713,6.6766,6.6822,6.6826,6.676,6.6752,6.6868,6.6881,6.6896,6.7093,6.6925,6.6934,6.6939,6.7361,6.7369,6.7375,0,0,0,0,0,0,6.6538,6.6563,6.6765,6.6669,6.6693,6.6711,6.6771,6.6771,6.6806,6.6833,6.6835,6.6794,6.6864,6.6883,6.7012,6.7096,6.6938,6.6947,6.7355,6.7364,6.7372,6.7487,0,0,0,0,0,0,6.6531,6.6562,6.6624,6.6671,6.6699,6.688,6.6776,6.6777,6.6823,6.6813,6.6865,6.6869,6.6861,6.6999,6.7022,6.7106,6.6954,6.7347,6.7359,6.7369,6.7476,6.7499,6.7518,0,0,0,0,0,6.6521,6.6651,6.6627,6.6652,6.6777,6.6885,6.69,6.689,6.683,6.6893,6.691,6.6867,6.7083,6.7012,6.7038,6.7126,6.7342,6.7355,6.7368,6.7466,6.7494,6.7518,0,0,0,0,0,0,6.6611,6.6656,6.6631,6.678,6.6829,6.6871,6.695,6.6919,6.6986,6.6974,6.6958,6.697,6.7106,6.7129,6.7049,6.7289,6.7203,6.7222,6.7269,6.7296,6.7316,6.7308,6.6962,0,0,0,0,0,6.6649,6.6733,6.6767,6.6896,6.6922,6.6932,6.6978,6.6967,6.7017,6.7037,6.7064,6.7114,6.7193,6.7245,6.732,6.7479,6.749,6.7553,6.7574,6.7591,6.7607,6.7696,6.7724,6.7418,6.7418,6.7418,0,0,6.6726,6.6761,6.6815,6.6915,6.6951,6.7039,6.695,6.7046,6.7111,6.7051,6.7175,6.7197,6.7252,6.7398,6.7464,6.7421,6.7695,6.7608,6.7621,6.7629,6.7712,6.7741,6.7767,6.7427,6.7426,6.7424,0,0,6.6913,6.6948,6.7059,6.7099,6.7156,6.7163,6.719,6.7238,6.725,6.7375,6.7333,6.741,6.7547,6.7588,6.7627,6.7834,6.7797,6.7859,6.7969,6.8055,6.8079,6.8101,6.8176,6.8202,6.7875,6.7875,6.7876,0,6.7002,6.7133,6.712,6.7221,6.7267,6.7218,6.7332,6.737,6.7449,6.7482,6.7434,6.7606,6.764,6.7795,6.7846,6.7879,6.791,6.7852,6.8077,6.8098,6.8118,6.8189,6.8217,6.7882,6.7882,6.7881,6.788,0,6.7241,6.7332,6.7416,6.7494,6.755,6.7656,6.766,6.7718,6.7702,6.7714,6.7843,6.7882,6.7964,6.8,6.7985,6.8155,6.8128,6.8079,6.7992,6.8154,6.8221,6.8248,6.7893,6.789,6.7888,6.7886,0,0,6.7485,6.7558,6.7589,6.7626,6.7687,6.7757,6.7863,6.7944,6.7995,6.8051,6.814,6.8258,6.8214,6.8259,6.8248,6.8324,6.8487,6.8266,6.8267,6.8306,6.8679,6.8715,6.8747,6.8463,6.8468,6.8472,6.8674,0,6.7676,6.786,6.7853,6.8025,6.811,6.8067,6.8159,6.8207,6.8222,6.8297,6.8312,6.8397,6.8332,6.8359,6.8432,6.8452,6.8561,6.8437,6.8546,6.855,6.8533,6.8781,6.882,6.9008,6.87,6.8704,6.8708,0,6.7923,6.799,6.8171,6.8222,6.8257,6.834,6.8416,6.8488,6.8542,6.8547,6.8599,6.8577,6.8685,6.8596,6.8745,6.866,6.8705,6.8721,6.8728,6.8738,6.8638,6.8798,6.9068,6.9097,6.8748,6.8745,6.8742,0,6.8085,6.822,6.8346,6.8379,6.8441,6.8501,6.8529,6.8578,6.8629,6.8695,6.8728,6.8806,6.8849,6.891,6.891,6.8845,6.9061,6.8972,6.9069,6.907,6.9116,6.9113,6.9397,6.9145,6.9144,6.9144,6.9143,0,6.8299,6.8412,6.842,6.8498,6.8623,6.8615,6.8739,6.8762,6.8807,6.8889,6.8856,6.8934,6.8929,6.9008,6.9009,6.9133,6.9152,6.916,6.9159,6.9163,6.9162,6.9191,6.9179,6.9151,6.915,6.9148,6.9147,0,6.8501,6.8511,6.8646,6.8695,6.871,6.8801,6.8843,6.8917,6.893,6.9034,6.9058,6.9078,6.9169,6.9176,6.9281,6.9282,6.9432,6.9417,6.9414,6.9412,6.9509,6.95,6.9822,6.9864,6.9584,6.9587,6.9589,0,6.8637,6.8723,6.8782,6.8835,6.8868,6.8953,6.9005,6.9001,6.9057,6.9127,6.9193,6.9282,6.9352,6.95,6.9524,6.9606,6.9592,6.9699,6.9604,6.9606,6.9595,6.959,6.9599,6.9718,6.9721,6.9723,6.9725,0,6.8878,6.8879,6.8956,6.9035,6.9099,6.9161,6.9219,6.9264,6.9267,6.9332,6.9425,6.948,6.9589,6.9678,6.9758,6.9787,6.9758,6.9755,6.9782,6.9788,6.9783,6.9788,6.9466,6.9748,6.9745,6.9744,6.9743,6.9742,6.9051,6.9127,6.9181,6.9268,6.9311,6.9367,6.944,6.9463,6.9541,6.963,6.9623,6.9727,6.9781,6.9886,6.9922,7.0004,6.9968,7.0006,7.0016,7.0026,7.0037,6.9771,7.0018,7.0018,7.0017,7.0017,7.0016,0,6.9291,6.9325,6.9405,6.9488,6.9557,6.9524,6.9587,6.9647,6.974,6.9793,6.9864,6.9973,7.006,7.0092,7.0177,7.0236,7.0225,7.0259,7.0254,7.0262,7.0064,7.0033,7.0266,7.0266,7.0266,7.0266,7.0266,7.0266,6.9424,6.955,6.9559,6.9707,6.9739,6.9842,6.9881,6.9933,6.9975,7.0099,7.0171,7.0192,7.0238,7.0326,7.0404,7.0412,7.0445,7.0485,7.0486,7.0301,7.0275,7.0251,7.0222,7.0492,7.0492,7.0677,7.0679,7.068]},{"header":{"parameterUnit":"m.s-1","parameterCategory":1,"la1":30.2991,"la2":30.254,"lo1":-89.0895,"lo2":-89.0444,"dy":0.0017,"dx":0.0017,"nx":28,"ny":28,"refTime":"2025-01-06T03:00:00:Z","depth":0,"parameterNumber":3,"parameterNumberName":"V-component_of_WINDS"},"data":[0,0,0,0,0,0,0,0,0,0,0,0,0,0,0,0,0,0,0,0,0,0,0,0,0,0,0,0,0,0,0,0,0,0,0,0,0,0,0,0,0,0,0,0,0,0,0,0,0,0,0,0,0,0,0,0,0,0,-7.3025,-7.3027,0,-7.3222,-7.3225,-7.3227,-7.3209,-7.3206,-7.3203,-7.32,-7.3397,-7.3405,-7.3413,0,0,0,0,0,0,0,0,0,0,0,0,0,-7.263,-7.2637,-7.3025,-7.3028,-7.303,-7.3222,-7.3225,-7.3227,-7.321,-7.3206,-7.3202,-7.3199,-7.3395,-7.3404,-7.3414,0,0,0,0,0,0,0,0,0,0,0,0,0,-7.2812,-7.264,-7.3025,-7.3044,-7.3048,-7.3221,-7.3225,-7.3228,-7.321,-7.3206,-7.3201,-7.3197,-7.3392,-7.3403,-7.3415,-7.358,0,0,-7.3452,-7.3457,0,0,0,0,0,0,0,0,-7.2801,-7.2826,-7.3039,-7.3043,-7.3048,-7.3187,-7.3158,-7.3346,-7.3211,-7.3149,-7.32,-7.3195,-7.3331,-7.3347,-7.3394,-7.3589,-7.3598,-7.3453,-7.346,-7.3466,-7.3469,0,0,0,0,0,0,0,-7.2789,-7.2818,-7.3103,-7.3042,-7.3048,-7.3042,-7.3063,-7.3193,-7.3262,-7.3154,-7.3153,-7.3177,-7.3332,-7.3382,-7.3399,-7.3601,-7.3453,-7.3464,-7.3471,-7.3476,-7.3942,-7.3947,0,0,0,0,0,0,-7.2772,-7.2807,-7.3097,-7.3109,-7.2911,-7.3053,-7.3076,-7.3147,-7.3261,-7.3274,-7.318,-7.3175,-7.3364,-7.3384,-7.3405,-7.3607,-7.3466,-7.3477,-7.3484,-7.3937,-7.3943,-7.3949,0,0,0,0,0,0,-7.2764,-7.2798,-7.3089,-7.2958,-7.2995,-7.3065,-7.3144,-7.3153,-7.3203,-7.3281,-7.3293,-7.322,-7.3361,-7.3388,-7.3537,-7.3613,-7.3482,-7.3493,-7.3931,-7.3939,-7.3946,-7.401,0,0,0,0,0,0,-7.2753,-7.2795,-7.2859,-7.296,-7.3002,-7.3219,-7.3148,-7.316,-7.3225,-7.322,-7.3321,-7.3333,-7.336,-7.3519,-7.3549,-7.3628,-7.3503,-7.3924,-7.3934,-7.3943,-7.4002,-7.4019,-7.4034,0,0,0,0,0,-7.2739,-7.2868,-7.2863,-7.2898,-7.3084,-7.3223,-7.3247,-7.3276,-7.3231,-7.3296,-7.3346,-7.333,-7.36,-7.3535,-7.3568,-7.3651,-7.392,-7.3932,-7.3943,-7.3994,-7.4016,-7.4034,0,0,0,0,0,0,-7.2773,-7.2882,-7.2877,-7.3043,-7.3124,-7.322,-7.3302,-7.3298,-7.3392,-7.3383,-7.3414,-7.3437,-7.3587,-7.3634,-7.3559,-7.3817,-7.3754,-7.3773,-7.3781,-7.3802,-7.3818,-7.3804,-7.3513,0,0,0,0,0,-7.2801,-7.2906,-7.2995,-7.3133,-7.3174,-7.3232,-7.3293,-7.3309,-7.3394,-7.3427,-7.3488,-7.357,-7.3673,-7.374,-7.3839,-7.4008,-7.403,-7.4082,-7.4098,-7.4111,-7.4127,-7.422,-7.4244,-7.3987,-7.3987,-7.3986,0,0,-7.2858,-7.293,-7.2994,-7.3142,-7.3207,-7.3314,-7.326,-7.3376,-7.3456,-7.3444,-7.3589,-7.3637,-7.373,-7.389,-7.3963,-7.3933,-7.4203,-7.4126,-7.4136,-7.4145,-7.4234,-7.4259,-7.428,-7.3995,-7.3993,-7.3992,0,0,-7.3016,-7.3082,-7.3205,-7.3271,-7.3371,-7.3408,-7.3438,-7.3535,-7.3567,-7.3713,-7.3707,-7.3802,-7.3979,-7.4046,-7.4103,-7.4289,-7.4278,-7.432,-7.4405,-7.4496,-7.4516,-7.4534,-7.4601,-7.4624,-7.4336,-7.4336,-7.4336,0,-7.3074,-7.3238,-7.3268,-7.3386,-7.3451,-7.3448,-7.3572,-7.3634,-7.376,-7.3805,-7.377,-7.3994,-7.4056,-7.4232,-7.4277,-7.4324,-7.4358,-7.4309,-7.4511,-7.4529,-7.4547,-7.461,-7.4635,-7.4341,-7.434,-7.434,-7.4339,0,-7.3304,-7.3417,-7.3504,-7.3629,-7.3703,-7.3824,-7.3872,-7.3944,-7.3953,-7.3994,-7.4143,-7.4218,-7.4333,-7.4376,-7.4386,-7.4554,-7.4532,-7.4504,-7.4441,-7.4575,-7.4636,-7.466,-7.4347,-7.4345,-7.4344,-7.4343,0,0,-7.3489,-7.363,-7.3661,-7.3718,-7.3828,-7.3916,-7.4036,-7.415,-7.4211,-7.4299,-7.44,-7.4551,-7.4526,-7.4591,-7.4608,-7.4688,-7.4831,-7.465,-7.4652,-7.4681,-7.5021,-7.5041,-7.5069,-7.4825,-7.4829,-7.4833,-7.5013,0,-7.3659,-7.3874,-7.3905,-7.4094,-7.4199,-7.4198,-7.4303,-7.4381,-7.4423,-7.4517,-7.4562,-7.4669,-7.4628,-7.4667,-7.4746,-7.4797,-7.4899,-7.4784,-7.4918,-7.4922,-7.4895,-7.5101,-7.5122,-7.5288,-7.5037,-7.5041,-7.5044,0,-7.3886,-7.3982,-7.4181,-7.4278,-7.4323,-7.4417,-7.4525,-7.4616,-7.4704,-7.4729,-7.4803,-7.4811,-7.4934,-7.4866,-7.5037,-7.4958,-7.5015,-7.5048,-7.5055,-7.5068,-7.4991,-7.5119,-7.5342,-7.5367,-7.5081,-7.5078,-7.5075,0,-7.4001,-7.418,-7.4323,-7.4371,-7.4488,-7.4554,-7.4605,-7.469,-7.4757,-7.485,-7.4894,-7.5,-7.5058,-7.514,-7.5176,-7.5123,-7.5345,-7.5279,-7.5368,-7.5367,-7.5414,-7.541,-7.5649,-7.5451,-7.5451,-7.545,-7.545,0,-7.4188,-7.431,-7.4376,-7.4464,-7.4601,-7.4636,-7.477,-7.4819,-7.4895,-7.4991,-7.4996,-7.5087,-7.5129,-7.5226,-7.5255,-7.5392,-7.5418,-7.544,-7.5447,-7.544,-7.5437,-7.5477,-7.5467,-7.5457,-7.5455,-7.5454,-7.5453,0,-7.4339,-7.4389,-7.4544,-7.4643,-7.467,-7.4767,-7.485,-7.4935,-7.4977,-7.5099,-7.513,-7.5195,-7.5309,-7.5354,-7.5492,-7.5512,-7.567,-7.5667,-7.564,-7.5642,-7.5728,-7.5719,-7.6,-7.6039,-7.5816,-7.5818,-7.582,0,-7.4455,-7.4549,-7.4658,-7.4724,-7.4778,-7.4884,-7.4953,-7.4992,-7.5063,-7.5172,-7.5244,-7.5358,-7.5452,-7.5634,-7.5693,-7.5799,-7.5798,-7.589,-7.5814,-7.5805,-7.58,-7.5794,-7.5803,-7.5903,-7.5906,-7.5907,-7.5909,0,-7.4655,-7.4675,-7.4775,-7.4885,-7.4967,-7.5055,-7.5139,-7.5193,-7.5244,-7.5324,-7.5442,-7.5515,-7.5658,-7.5771,-7.5881,-7.5932,-7.593,-7.5932,-7.5959,-7.5953,-7.5934,-7.5945,-7.5678,-7.5926,-7.5924,-7.5923,-7.5922,-7.5921,-7.4792,-7.4876,-7.4967,-7.5078,-7.5147,-7.5226,-7.5311,-7.5364,-7.5464,-7.5585,-7.5601,-7.5727,-7.5814,-7.5962,-7.6018,-7.6117,-7.6092,-7.613,-7.614,-7.6148,-7.6154,-7.5918,-7.6137,-7.6136,-7.6136,-7.6135,-7.6135,0,-7.4992,-7.5051,-7.5153,-7.5273,-7.5361,-7.5352,-7.5446,-7.552,-7.5632,-7.5714,-7.5806,-7.5942,-7.6052,-7.6121,-7.6231,-7.6297,-7.6299,-7.6325,-7.632,-7.6332,-7.617,-7.6136,-7.6322,-7.6322,-7.6322,-7.6322,-7.6322,-7.6322,-7.5107,-7.5249,-7.528,-7.5456,-7.5514,-7.5639,-7.5693,-7.5767,-7.5833,-7.5985,-7.6077,-7.6121,-7.6198,-7.6315,-7.6415,-7.6432,-7.6473,-7.6501,-7.6516,-7.6363,-7.6343,-7.6325,-7.6294,-7.651,-7.651,-7.6671,-7.6672,-7.6673]}]]